When you browse on this site, cookies collect data to enhance your experience and personalize the content and advertising you see.
Visit our Privacy Policy to learn more. By continuing to use the site, you agree to this use of cookies and data.
  • In Czech Republic
  • List of Countries
  • For 7 days
  • Water Temperature
  • Weather Map
  • Weather Widgets
  • user-avatar
    Login

    Hourly Weather Batina

    Today, 24 February, Monday

    Time Temperature Precipitation Wind Pressure Humidity
    00:00 +7°C° 0 mm 0 mps 678 mmHg 52%
    01:00 +7°C° 0 mm 0 mps 677 mmHg 51%
    02:00 +8°C° 0 mm 1 mps 677 mmHg 50%
    03:00 +8°C° 0 mm 1 mps 677 mmHg 49%
    04:00 +8°C° 0 mm 1 mps 677 mmHg 50%
    05:00 +7°C° 0 mm 1 mps 676 mmHg 51%
    06:00 +7°C° 0 mm 1 mps 676 mmHg 52%
    07:00 +10°C° 0 mm 1 mps 677 mmHg 45%
    08:00 +12°C° 0 mm 1 mps 678 mmHg 39%
    09:00 +15°C° 0 mm 1 mps 679 mmHg 32%
    10:00 +16°C° 0 mm 1 mps 679 mmHg 29%
    11:00 +17°C° 0 mm 2 mps 678 mmHg 27%
    12:00 +18°C° 0 mm 2 mps 678 mmHg 25%
    13:00 +19°C° 0 mm 2 mps 678 mmHg 25%
    14:00 +19°C° 0 mm 2 mps 677 mmHg 25%
    15:00 +19°C° 0 mm 2 mps 677 mmHg 25%
    16:00 +17°C° 0 mm 2 mps 676 mmHg 31%
    17:00 +15°C° 0 mm 1 mps 676 mmHg 37%
    18:00 +13°C° 0 mm 1 mps 675 mmHg 43%
    19:00 +13°C° 0 mm 1 mps 675 mmHg 45%
    20:00 +12°C° 0 mm 1 mps 674 mmHg 46%
    21:00 +11°C° 0 mm 1 mps 674 mmHg 48%
    22:00 +11°C° 0 mm 1 mps 674 mmHg 47%
    23:00 +11°C° 0 mm 1 mps 674 mmHg 47%

    Tomorrow, 25 February, Tuesday

    Time Temperature Precipitation Wind Pressure Humidity
    00:00 +10°C° 0 mm 1 mps 673 mmHg 46%
    01:00 +10°C° 0 mm 1 mps 673 mmHg 46%
    02:00 +9°C° 0 mm 2 mps 672 mmHg 45%
    03:00 +8°C° 0 mm 2 mps 672 mmHg 44%
    04:00 +8°C° 0 mm 2 mps 672 mmHg 44%
    05:00 +8°C° 0 mm 2 mps 672 mmHg 44%
    06:00 +7°C° 0 mm 2 mps 671 mmHg 44%
    07:00 +10°C° 0 mm 2 mps 672 mmHg 39%
    08:00 +13°C° 0 mm 2 mps 673 mmHg 34%
    09:00 +16°C° 0 mm 2 mps 674 mmHg 28%
    10:00 +17°C° 0 mm 3 mps 673 mmHg 26%
    11:00 +18°C° 0 mm 4 mps 673 mmHg 24%
    12:00 +19°C° 0 mm 4 mps 673 mmHg 22%
    13:00 +17°C° 0 mm 5 mps 673 mmHg 23%
    14:00 +17°C° 0 mm 5 mps 672 mmHg 24%
    15:00 +17°C° 0 mm 5 mps 671 mmHg 25%
    16:00 +15°C° 0 mm 4 mps 671 mmHg 30%
    17:00 +13°C° 0 mm 4 mps 671 mmHg 34%
    18:00 +12°C° 0 mm 3 mps 670 mmHg 38%
    19:00 +11°C° 0 mm 3 mps 670 mmHg 39%
    20:00 +12°C° 0 mm 2 mps 670 mmHg 39%
    21:00 +10°C° 0 mm 2 mps 670 mmHg 39%
    22:00 +9°C° 0 mm 2 mps 670 mmHg 43%
    23:00 +9°C° 0 mm 2 mps 670 mmHg 47%

    Day after tomorrow, 26 February, Wednesday

    Time Temperature Precipitation Wind Pressure Humidity
    00:00 +9°C° 0 mm 1 mps 669 mmHg 50%
    01:00 +9°C° 0 mm 1 mps 669 mmHg 53%
    02:00 +8°C° 0 mm 1 mps 668 mmHg 56%
    03:00 +8°C° 0 mm 1 mps 668 mmHg 59%
    04:00 +8°C° 0 mm 1 mps 668 mmHg 61%
    05:00 +7°C° 0 mm 1 mps 668 mmHg 62%
    06:00 +7°C° 0 mm 1 mps 667 mmHg 64%
    07:00 +8°C° 0 mm 2 mps 668 mmHg 57%
    08:00 +10°C° 0 mm 3 mps 669 mmHg 50%
    09:00 +12°C° 0 mm 4 mps 670 mmHg 43%
    10:00 +13°C° 0 mm 4 mps 670 mmHg 44%
    11:00 +13°C° 0 mm 5 mps 670 mmHg 46%
    12:00 +14°C° 0 mm 5 mps 670 mmHg 47%
    13:00 +14°C° 0 mm 5 mps 670 mmHg 45%
    14:00 +14°C° 0 mm 5 mps 670 mmHg 43%
    15:00 +14°C° 0 mm 5 mps 669 mmHg 41%
    16:00 +12°C° 0 mm 5 mps 669 mmHg 48%
    17:00 +11°C° 0 mm 4 mps 669 mmHg 54%
    18:00 +9°C° 0 mm 3 mps 669 mmHg 60%
    19:00 +9°C° 0 mm 3 mps 670 mmHg 66%
    20:00 +8°C° 0 mm 2 mps 670 mmHg 71%
    21:00 +7°C° 0 mm 2 mps 670 mmHg 77%
    22:00 +6°C° 0 mm 2 mps 670 mmHg 79%
    23:00 +6°C° 0 mm 2 mps 670 mmHg 82%

    27 February, Thursday

    Time Temperature Precipitation Wind Pressure Humidity
    00:00 +4°C° 0 mm 3 mps 670 mmHg 85%
    01:00 +5°C° 0 mm 2 mps 670 mmHg 84%
    02:00 +4°C° 0 mm 2 mps 670 mmHg 84%
    03:00 +4°C° 0 mm 2 mps 670 mmHg 84%
    04:00 +3°C° 0 mm 2 mps 670 mmHg 82%
    05:00 +3°C° 0 mm 2 mps 670 mmHg 80%
    06:00 +3°C° 0 mm 2 mps 671 mmHg 77%
    07:00 +5°C° 0 mm 2 mps 672 mmHg 67%
    08:00 +6°C° 0 mm 2 mps 673 mmHg 56%
    09:00 +9°C° 0 mm 1 mps 674 mmHg 45%
    10:00 +9°C° 0 mm 2 mps 674 mmHg 41%
    11:00 +10°C° 0 mm 2 mps 674 mmHg 37%
    12:00 +12°C° 0 mm 3 mps 674 mmHg 33%
    13:00 +12°C° 0 mm 3 mps 674 mmHg 33%
    14:00 +12°C° 0 mm 3 mps 674 mmHg 33%
    15:00 +13°C° 0 mm 3 mps 674 mmHg 34%
    16:00 +13°C° 0 mm 2 mps 673 mmHg 39%
    17:00 +10°C° 0 mm 2 mps 673 mmHg 44%
    18:00 +10°C° 0 mm 1 mps 673 mmHg 50%
    19:00 +9°C° 0 mm 2 mps 673 mmHg 52%
    20:00 +8°C° 0 mm 2 mps 673 mmHg 54%
    21:00 +8°C° 0 mm 2 mps 674 mmHg 56%
    22:00 +7°C° 0 mm 2 mps 673 mmHg 56%
    23:00 +7°C° 0 mm 2 mps 673 mmHg 56%

    28 February, Friday

    Time Temperature Precipitation Wind Pressure Humidity
    00:00 +7°C° 0 mm 2 mps 673 mmHg 56%
    01:00 +7°C° 0 mm 2 mps 673 mmHg 56%
    02:00 +7°C° 0 mm 2 mps 672 mmHg 56%
    03:00 +6°C° 0 mm 2 mps 672 mmHg 56%
    04:00 +6°C° 0 mm 2 mps 672 mmHg 56%
    05:00 +5°C° 0 mm 3 mps 672 mmHg 57%
    06:00 +5°C° 0 mm 3 mps 672 mmHg 58%
    07:00 +8°C° 0 mm 3 mps 673 mmHg 51%
    08:00 +10°C° 0 mm 3 mps 674 mmHg 44%
    09:00 +12°C° 0 mm 4 mps 675 mmHg 37%
    10:00 +14°C° 0 mm 4 mps 674 mmHg 35%
    11:00 +15°C° 0 mm 5 mps 674 mmHg 32%
    12:00 +16°C° 0 mm 5 mps 674 mmHg 29%
    13:00 +16°C° 0 mm 5 mps 673 mmHg 30%
    14:00 +16°C° 0 mm 5 mps 673 mmHg 30%
    15:00 +16°C° 0 mm 6 mps 672 mmHg 31%
    16:00 +14°C° 0 mm 5 mps 672 mmHg 36%
    17:00 +12°C° 0 mm 4 mps 671 mmHg 41%
    18:00 +11°C° 0 mm 3 mps 671 mmHg 46%
    19:00 +11°C° 0 mm 3 mps 671 mmHg 46%
    20:00 +10°C° 0 mm 3 mps 671 mmHg 46%
    21:00 +10°C° 0 mm 3 mps 671 mmHg 46%
    22:00 +10°C° 0 mm 3 mps 671 mmHg 46%
    23:00 +10°C° 0 mm 4 mps 670 mmHg 47%

    29 February, Saturday

    Time Temperature Precipitation Wind Pressure Humidity
    00:00 +8°C° 0 mm 4 mps 670 mmHg 47%
    01:00 +8°C° 0 mm 4 mps 670 mmHg 47%
    02:00 +8°C° 0 mm 4 mps 669 mmHg 47%
    03:00 +8°C° 0 mm 4 mps 669 mmHg 47%
    04:00 +9°C° 0 mm 3 mps 669 mmHg 48%
    05:00 +8°C° 0 mm 3 mps 669 mmHg 49%
    06:00 +8°C° 0 mm 3 mps 669 mmHg 50%
    07:00 +10°C° 0 mm 3 mps 669 mmHg 44%
    08:00 +13°C° 0 mm 3 mps 670 mmHg 38%
    09:00 +15°C° 0 mm 4 mps 671 mmHg 33%
    10:00 +16°C° 0 mm 5 mps 671 mmHg 31%
    11:00 +16°C° 0 mm 6 mps 671 mmHg 29%
    12:00 +17°C° 0 mm 6 mps 671 mmHg 27%
    13:00 +17°C° 0 mm 6 mps 670 mmHg 27%
    14:00 +17°C° 0 mm 6 mps 670 mmHg 27%
    15:00 +16°C° 0 mm 5 mps 669 mmHg 27%
    16:00 +15°C° 0 mm 4 mps 669 mmHg 31%
    17:00 +13°C° 0 mm 4 mps 668 mmHg 35%
    18:00 +12°C° 0 mm 3 mps 668 mmHg 39%
    19:00 +11°C° 0 mm 3 mps 668 mmHg 41%
    20:00 +11°C° 0 mm 3 mps 669 mmHg 42%
    21:00 +10°C° 0 mm 3 mps 669 mmHg 44%
    22:00 +10°C° 0 mm 2 mps 668 mmHg 48%
    23:00 +9°C° 0 mm 2 mps 668 mmHg 52%
    Show more